User: anonymous   Login
Location: Standeford and Andreas Observatories
(44.1397°N, 93.9969°W)
Time: 22:45:26
(UTC-05:00)
Language:

Cosmos 1500 Rocket - Orbit

View from above orbital plane
View from above orbital plane
View from above satellite
View from above satellite

Ground track
Ground track

The orbit data is extracted from the following two-line orbital elements,

1 14373U 83099B   17176.61030580 +.00000096 +00000-0 +86848-5 0  9996
2 14373 082.5409 236.6744 0019796 194.5851 326.0200 14.83679687801028
Epoch (UTC): 25 June 2017 14:38:50
Eccentricity: 0.0019796
inclination: 82.5409°
perigee height: 604 km
apogee height: 631 km
right ascension of ascending node: 236.6744°
argument of perigee: 194.5851°
revolutions per day: 14.83679687
mean anomaly at epoch: 326.0200°
orbit number at epoch: 80102

The dashed part of the orbit path shows where the satellite is in the earth's shadow,  

DLR